Time,TemperatureF,DewpointF,PressureIn,WindDirection,WindDirectionDegrees,WindSpeedMPH,WindSpeedGustMPH,Humidity,HourlyPrecipIn,Conditions,Clouds,dailyrainin,SoftwareType,DateUTC
2013-05-12 00:19:00,59.2,59.2,29.75,SE,143,0.0,0.0,100,0.00,,OVC200,0.00,VWS V14.00,2013-05-12 04:19:00,
2013-05-12 00:39:00,59.1,59.1,29.76,SE,143,0.0,0.0,100,0.00,,OVC200,0.00,VWS V14.00,2013-05-12 04:39:00,
2013-05-12 00:59:00,59.8,59.8,29.76,SE,143,0.0,0.0,100,0.00,,OVC100,0.00,VWS V14.00,2013-05-12 04:59:00,
2013-05-12 01:19:00,59.7,59.7,29.77,SE,143,0.0,0.0,100,0.00,,OVC100,0.00,VWS V14.00,2013-05-12 05:19:00,
2013-05-12 01:39:00,59.5,59.5,29.77,SE,143,0.0,0.0,100,0.01,,OVC100,0.01,VWS V14.00,2013-05-12 05:39:00,
2013-05-12 01:59:00,59.5,59.5,29.76,SE,143,0.0,0.0,100,0.01,,OVC100,0.01,VWS V14.00,2013-05-12 05:59:00,
2013-05-12 02:19:00,59.8,59.8,29.75,SE,143,0.0,0.0,100,0.01,,OVC100,0.01,VWS V14.00,2013-05-12 06:19:00,
2013-05-12 02:39:00,57.9,57.9,29.76,SE,143,0.0,0.0,100,0.00,,OVC100,0.01,VWS V14.00,2013-05-12 06:39:00,
2013-05-12 02:59:00,58.2,58.2,29.75,SE,143,0.0,0.0,100,0.00,,OVC090,0.01,VWS V14.00,2013-05-12 06:59:00,
2013-05-12 03:19:00,57.2,57.2,29.75,SE,143,0.0,0.0,100,0.00,,OVC090,0.01,VWS V14.00,2013-05-12 07:19:00,
2013-05-12 03:39:00,56.8,56.8,29.75,SE,143,0.0,0.0,100,0.00,,OVC090,0.01,VWS V14.00,2013-05-12 07:39:00,
2013-05-12 03:59:00,56.3,56.3,29.76,West,276,0.0,3.3,100,0.00,,-RA,0.01,VWS V14.00,2013-05-12 07:59:00,
2013-05-12 04:19:00,56.5,56.5,29.76,West,263,0.0,6.1,100,0.00,,-RA,0.01,VWS V14.00,2013-05-12 08:19:00,
2013-05-12 04:39:00,53.8,53.8,29.77,WSW,238,0.0,2.4,100,0.00,,-RA,0.01,VWS V14.00,2013-05-12 08:39:00,
2013-05-12 04:59:00,54.3,54.3,29.77,WSW,248,0.0,5.0,100,0.00,,OVC120,0.01,VWS V14.00,2013-05-12 08:59:00,
2013-05-12 05:19:00,55.3,55.3,29.78,West,269,0.0,5.3,100,0.00,,OVC120,0.01,VWS V14.00,2013-05-12 09:19:00,
2013-05-12 05:39:00,54.6,54.6,29.79,NW,323,0.0,4.9,100,0.01,,OVC120,0.02,VWS V14.00,2013-05-12 09:39:00,
2013-05-12 05:59:00,53.8,53.8,29.79,NW,316,0.0,5.4,100,0.01,,OVC100,0.02,VWS V14.00,2013-05-12 09:59:00,
2013-05-12 06:19:00,53.1,53.1,29.79,NW,316,0.0,0.0,100,0.00,,OVC100,0.02,VWS V14.00,2013-05-12 10:19:00,
2013-05-12 06:39:00,52.9,52.9,29.79,NW,316,0.0,0.0,100,0.00,,OVC100,0.02,VWS V14.00,2013-05-12 10:39:00,
2013-05-12 06:59:00,52.4,52.4,29.79,NW,316,0.0,0.0,100,0.00,,BKN100,0.02,VWS V14.00,2013-05-12 10:59:00,
2013-05-12 07:19:00,53.0,53.0,29.80,NW,316,0.0,0.0,100,0.00,,BKN100,0.02,VWS V14.00,2013-05-12 11:19:00,
2013-05-12 07:39:00,52.9,52.9,29.80,NW,316,0.0,0.0,100,0.00,,BKN100,0.02,VWS V14.00,2013-05-12 11:39:00,
2013-05-12 07:59:00,53.3,53.3,29.79,WNW,292,4.7,5.7,100,0.00,,BKN250,0.02,VWS V14.00,2013-05-12 11:59:00,
2013-05-12 08:19:00,53.4,53.4,29.80,WNW,297,2.1,11.2,100,0.00,,BKN250,0.02,VWS V14.00,2013-05-12 12:19:00,
2013-05-12 08:39:00,55.8,55.8,29.81,NW,318,0.0,13.9,100,0.00,,BKN250,0.02,VWS V14.00,2013-05-12 12:39:00,
2013-05-12 08:59:00,56.4,55.0,29.82,NNW,336,2.3,17.1,95,0.00,,BKN250,0.02,VWS V14.00,2013-05-12 12:59:00,
2013-05-12 09:19:00,56.7,53.2,29.82,WNW,287,8.4,14.9,88,0.00,,SCT250,0.02,VWS V14.00,2013-05-12 13:19:00,
2013-05-12 09:39:00,57.5,50.8,29.83,WNW,291,0.0,15.7,78,0.00,,SCT250,0.02,VWS V14.00,2013-05-12 13:39:00,
2013-05-12 09:59:00,58.4,47.5,29.84,NW,309,16.3,19.3,67,0.01,,SCT250,0.03,VWS V14.00,2013-05-12 13:59:00,
2013-05-12 10:19:00,58.3,48.0,29.84,NW,311,4.7,16.3,69,0.01,,SCT250,0.03,VWS V14.00,2013-05-12 14:19:00,
2013-05-12 10:39:00,59.1,47.2,29.84,West,271,5.3,14.9,65,0.00,,SCT250,0.03,VWS V14.00,2013-05-12 14:39:00,
2013-05-12 10:59:00,58.6,45.5,29.84,NW,314,5.7,19.5,62,0.00,,BKN250,0.03,VWS V14.00,2013-05-12 14:59:00,
2013-05-12 11:19:00,60.6,46.6,29.85,NNE,27,2.9,17.1,60,0.00,,BKN250,0.03,VWS V14.00,2013-05-12 15:19:00,
2013-05-12 11:39:00,61.8,45.2,29.84,WNW,290,6.5,14.8,54,0.00,,BKN250,0.03,VWS V14.00,2013-05-12 15:39:00,
2013-05-12 11:59:00,61.5,45.6,29.84,East,82,2.7,14.7,56,0.00,,SCT065,0.03,VWS V14.00,2013-05-12 15:59:00,
2013-05-12 12:19:00,60.2,43.7,29.85,West,260,6.2,18.6,54,0.00,,SCT065,0.03,VWS V14.00,2013-05-12 16:19:00,
2013-05-12 12:39:00,62.0,41.5,29.85,WNW,284,5.8,18.2,47,0.00,,SCT065,0.03,VWS V14.00,2013-05-12 16:39:00,
2013-05-12 12:59:00,62.5,40.9,29.86,NW,315,3.4,18.1,45,0.00,,FEW055,0.03,VWS V14.00,2013-05-12 16:59:00,
2013-05-12 13:19:00,61.7,37.5,29.86,North,359,3.0,17.8,40,0.01,,FEW055,0.04,VWS V14.00,2013-05-12 17:19:00,
2013-05-12 13:39:00,62.8,37.2,29.87,NW,314,6.5,19.9,38,0.01,,FEW055,0.04,VWS V14.00,2013-05-12 17:39:00,
2013-05-12 13:59:00,63.3,36.8,29.87,WSW,240,8.5,13.9,37,0.00,,SCT250,0.04,VWS V14.00,2013-05-12 17:59:00,
2013-05-12 14:19:00,63.7,37.0,29.87,NW,315,7.4,18.2,37,0.00,,SCT250,0.04,VWS V14.00,2013-05-12 18:19:00,
2013-05-12 14:39:00,63.6,36.7,29.87,WNW,288,0.0,16.5,37,0.00,,SCT250,0.04,VWS V14.00,2013-05-12 18:39:00,
2013-05-12 14:59:00,64.3,37.5,29.87,SW,232,3.5,15.5,37,0.00,,SCT250,0.04,VWS V14.00,2013-05-12 18:59:00,
2013-05-12 15:19:00,63.1,35.5,29.87,West,270,8.4,15.3,36,0.00,,SCT250,0.04,VWS V14.00,2013-05-12 19:19:00,
2013-05-12 15:39:00,63.0,35.2,29.87,WNW,290,0.0,16.8,35,0.00,,SCT250,0.04,VWS V14.00,2013-05-12 19:39:00,
2013-05-12 15:59:00,64.8,36.4,29.87,WNW,294,6.1,15.5,35,0.00,,SCT250,0.04,VWS V14.00,2013-05-12 19:59:00,
2013-05-12 16:19:00,63.9,35.5,29.87,South,191,4.3,17.3,35,0.01,,SCT250,0.05,VWS V14.00,2013-05-12 20:19:00,
2013-05-12 16:39:00,65.2,36.2,29.87,NNW,333,3.0,14.7,34,0.01,,SCT250,0.05,VWS V14.00,2013-05-12 20:39:00,
2013-05-12 16:59:00,64.0,34.3,29.88,WSW,250,9.9,15.3,33,0.01,,SCT250,0.05,VWS V14.00,2013-05-12 20:59:00,
2013-05-12 17:19:00,62.8,34.2,29.88,NW,322,8.1,13.4,34,0.00,,SCT080,0.05,VWS V14.00,2013-05-12 21:19:00,
2013-05-12 17:39:00,61.6,35.0,29.89,WNW,292,12.6,19.8,37,0.00,,SCT080,0.05,VWS V14.00,2013-05-12 21:39:00,
2013-05-12 17:59:00,61.1,34.3,29.89,NW,305,12.0,19.2,36,0.00,,SCT080,0.05,VWS V14.00,2013-05-12 21:59:00,
2013-05-12 18:19:00,57.4,33.2,29.90,NW,307,6.2,17.0,40,0.00,,SCT080,0.05,VWS V14.00,2013-05-12 22:19:00,
2013-05-12 18:39:00,56.2,32.6,29.91,WNW,291,6.4,18.1,41,0.00,,SCT080,0.05,VWS V14.00,2013-05-12 22:39:00,
2013-05-12 18:59:00,56.9,33.9,29.91,WNW,292,0.0,18.3,42,0.00,,SCT085,0.05,VWS V14.00,2013-05-12 22:59:00,
2013-05-12 19:19:00,57.2,34.8,29.92,NNW,330,4.2,16.4,43,0.00,,SCT085,0.05,VWS V14.00,2013-05-12 23:19:00,
2013-05-12 19:39:00,54.0,32.0,29.93,West,270,0.0,15.8,43,0.00,,SCT085,0.05,VWS V14.00,2013-05-12 23:39:00,
2013-05-12 19:59:00,53.8,33.8,29.94,North,359,3.3,12.0,47,0.00,,SCT085,0.05,VWS V14.00,2013-05-12 23:59:00,
2013-05-12 20:19:00,53.8,36.7,29.95,WNW,283,0.0,9.2,52,0.00,,FEW090,0.05,VWS V14.00,2013-05-13 00:19:00,
2013-05-12 20:39:00,53.6,35.4,29.96,WNW,290,0.0,10.7,50,0.00,,FEW090,0.05,VWS V14.00,2013-05-13 00:39:00,
2013-05-12 20:59:00,53.4,35.2,29.97,NW,311,6.2,10.6,50,0.00,,FEW090,0.05,VWS V14.00,2013-05-13 00:59:00,
2013-05-12 21:19:00,51.8,37.0,29.98,West,267,0.0,8.4,57,0.00,,FEW090,0.05,VWS V14.00,2013-05-13 01:19:00,
2013-05-12 21:39:00,51.9,37.6,29.99,West,276,0.0,6.7,58,0.01,,FEW090,0.06,VWS V14.00,2013-05-13 01:39:00,
2013-05-12 21:59:00,49.4,35.4,30.00,SSW,198,0.0,3.4,58,0.01,,FEW085,0.06,VWS V14.00,2013-05-13 01:59:00,
2013-05-12 22:19:00,48.3,36.2,30.02,SSW,198,0.0,0.0,63,0.00,,FEW085,0.06,VWS V14.00,2013-05-13 02:19:00,
2013-05-12 22:39:00,47.9,39.5,30.02,SSW,198,0.0,0.0,72,0.00,,FEW085,0.06,VWS V14.00,2013-05-13 02:39:00,
2013-05-12 22:59:00,46.5,39.3,30.03,South,174,0.0,5.9,76,0.00,,FEW085,0.06,VWS V14.00,2013-05-13 02:59:00,
2013-05-12 23:19:00,46.0,40.8,30.03,WSW,240,0.0,2.9,82,0.00,,FEW085,0.06,VWS V14.00,2013-05-13 03:19:00,
2013-05-12 23:39:00,45.7,42.1,30.03,NNW,329,0.0,3.0,87,0.00,,FEW085,0.06,VWS V14.00,2013-05-13 03:39:00,